Regional Weather Roundup
Issued by NWS Boston, MA

Home | Current Version | Previous Version | Text Only | Print | Product List | Glossary On
Versions: 1 2 3 4 5 6 7 8 9 10 11 12 13 14 15 16 17 18 19 20 21 22 23 24 25 26 27 28
000
ASUS41 KBOX 311510
RWRBOX

REGIONAL WEATHER ROUNDUP
NATIONAL WEATHER SERVICE TAUNTON MA
1100 AM EDT TUE MAY 31 2016

NOTE:  "FAIR" INDICATES FEW OR NO CLOUDS BELOW 12,000 FEET WITH NO
SIGNIFICANT WEATHER AND/OR OBSTRUCTIONS TO VISIBILITY.  THE FOLLOWING
OBSERVATION LOCATIONS DO NOT REPORT PRESENT WEATHER...PROVINCETOWN...
SMITHFIELD...BLOCK ISLAND...KEENE...AND OXFORD.

MAZALL-311600-
EASTERN MASSACHUSETTS

CITY           SKY/WX    TMP DP  RH WIND       PRES   REMARKS
BOSTON         PTSUNNY   80  52  37 W12G20    29.91F
BEVERLY        SUNNY     79  54  41 W9        29.89F
LAWRENCE       SUNNY     80  50  34 W10       29.91F
BEDFORD        SUNNY     82  51  34 W12       29.90F
BLUE HILL        N/A     76  55  48 W10       29.93F
NORWOOD        MOSUNNY   80  56  43 W10       29.92S
MARSHFIELD     CLOUDY    79  66  65 VRB6G13   29.91F
PLYMOUTH       CLOUDY    74  68  81 S8        29.94S
TAUNTON        PTSUNNY   78  67  68 VRB6      29.93F
NEW BEDFORD    PTSUNNY   72  66  81 SW8       29.94F
$$

MAZALL-311600-
CAPE COD AND THE ISLANDS

CITY           SKY/WX    TMP DP  RH WIND       PRES   REMARKS
FALMOUTH       FOG       64  64 100 SW13G21   29.96S VSB 1/2
HYANNIS        CLOUDY    66  64  93 SW17G23   29.94F FOG
CHATHAM        CLOUDY    64  64 100 SW8G25    29.96F
PROVINCETOWN   CLOUDY    66  63  90 SW16      29.94S FOG
NANTUCKET      CLOUDY    64  61  90 SW13      29.98S
MARTHAS VNYRD  CLOUDY    64  62  93 SW12G20   29.97S FOG
$$

MAZALL-311600-
CENTRAL AND WESTERN MASSACHUSETTS

CITY           SKY/WX    TMP DP  RH WIND       PRES   REMARKS
WORCESTER      CLOUDY    75  47  36 W13       29.96F
FITCHBURG      CLOUDY    79  48  33 NW13G21   29.93F
ORANGE         CLOUDY    76  52  43 W9        29.93F
SPRINGFIELD    NOT AVBL
WESTFIELD      CLOUDY    79  53  40 NW7       29.95S
NORTH ADAMS    SUNNY     74  49  41 W15G21    29.95F
PITTSFIELD     SUNNY     73  50  44 NW9       29.97F
$$

RIZALL-311600-
RHODE ISLAND

CITY           SKY/WX    TMP DP  RH WIND       PRES   REMARKS
PROVIDENCE     PTSUNNY   79  59  50 W7        29.95F
NEWPORT        CLOUDY    69  66  90 S8        29.96S
BLOCK ISLAND   CLOUDY    66  63  90 SW15      29.98F
SMITHFIELD     CLOUDY   N/A N/A N/A NW12      29.94F
WESTERLY       CLOUDY    69  63  81 S8        29.98S
$$

CTZALL-311600-
CONNECTICUT

CITY           SKY/WX    TMP DP  RH WIND       PRES   REMARKS
BRADLEY INTL   CLOUDY    78  54  43 VRB6      29.95S
HARTFORD       CLOUDY    80  54  40 N7        29.96S
BRIDGEPORT     CLOUDY    75  67  76 SW8       29.96F
DANBURY        CLOUDY    77  55  46 VRB6      29.99F
GROTON         FOG       67  66  97 S9        29.96S VSB 1
NEW HAVEN      CLOUDY    72  67  84 S8        29.96F
CHESTER          N/A     79  54  41 VRB7      29.98S
MERIDEN        CLOUDY    79  53  40 NW8       29.96F
WILLIMANTIC    MOSUNNY   81  52  36 N12       29.96S
OXFORD         PTSUNNY   73  52  46 N9        30.00S
$$

MEZ002-015-021-024-NHZ003-005-008-011-012-014-VTZ005-008-311600-
NORTHERN NEW ENGLAND

CITY           SKY/WX    TMP DP  RH WIND       PRES   REMARKS
PORTLAND ME    PTSUNNY   79  55  43 W13       29.83F
BANGOR ME      MOSUNNY   82  55  39 W9        29.79F
CONCORD NH     CLOUDY    78  47  33 W10       29.89F
MANCHESTER NH  CLOUDY    78  47  33 W10       29.89F
NASHUA NH      CLOUDY    78  50  37 W9        29.91F
PORTSMOUTH NH  PTSUNNY   80  51  36 W13       29.86F
JAFFREY NH     CLOUDY    74  49  41 VRB6      29.94F
KEENE NH       SUNNY    N/A N/A N/A NW10G17   29.93S
BURLINGTON VT  FAIR      75  48  38 W10       29.90S
MT. WASHINGTON MOSUNNY   46  41  81 W45G53      N/A
$$

NYZ052-076-311600-
EASTERN NEW YORK

CITY           SKY/WX    TMP DP  RH WIND       PRES   REMARKS
ALBANY         MOSUNNY   76  52  43 NW15      29.96F
NEW YORK CITY  PTSUNNY   79  61  53 NE10G18   29.97S
$$

ANZALL-311600-
MARINE OBSERVATIONS

STATION/POSITION TIME  TEMP    WIND        PRES    VSBY  WAVE
                       AIR SEA DIR/SP/G                  HT/PER
                 (UTC) (F)     (DEG/KT/KT) (MB)    (MI)  (FT/S)
BOSTON BUOY      1450   65 59  230/  8/ 10 1013.2R         1
BUZZARDS BAY     1400   60     230/ 19/ 20 1014.9F
NANTUCKET SOUND  1450   62 59  220/ 14/ 16 1014.3F         2/ 4
MASS BAY-STELLWA 1404   59 56                N/A    1 3/4  1/ 3
ISLE OF SHOALS   1500   72     260/ 13/ 14 1011.3F
S OF BLOCK IS    1425      58                N/A           4/ 7
$$

......................KEY.........................
  SKY/WX - SKY CONDITION/PRESENT WEATHER
  TMP    - TEMPERATURE IN FAHRENHEIT
  DWPT   - DEWPOINT IN FAHRENHEIT
  RH     - RELATIVE HUMIDITY IN PERCENT
  WIND   - DIRECTION AND SPEED IN MPH
  PRES   - MEAN SEA LEVEL PRESSURE IN INCHES OF HG
  WCI    - WIND CHILL INDEX
  VSB    - VISIBILITY IN MILES
  HX     - HEAT INDEX
  TC     - TEMPERATURE IN CELSIUS
  VRB    - VARIABLE WIND DIRECTION
  N/A    - NOT AVAILABLE




USA.gov is the U.S. government's official web portal to all federal, state and local government web resources and services.